This is the latest recevied weather packets stored in our database for station/object KG7MRB. If no packets are shown the sender has not sent any weather packets the latest 10 day(s).
| Time | Temp. | Humidity | Pressure | Rain* | Wind** | Luminosity | Snow |
|---|---|---|---|---|---|---|---|
| 1778002239 | 18.33° C | 68% | 1033.2 hPa | 0 mm | - | 534 W/m² | - |
| 1778001937 | 18.33° C | 67% | 1033.1 hPa | 0 mm | - | 526 W/m² | - |
| 1778001633 | 17.78° C | 66% | 1033.3 hPa | 0 mm | - | 517 W/m² | - |
| 1778001328 | 17.78° C | 66% | 1033 hPa | 0 mm | - | 506 W/m² | - |
| 1778001026 | 18.33° C | 65% | 1033.1 hPa | 0 mm | - | 496 W/m² | - |
| 1778000722 | 18.89° C | 64% | 1033.1 hPa | 0 mm | - | 484 W/m² | - |
| 1778000419 | 18.33° C | 66% | 1033.1 hPa | 0 mm | - | 474 W/m² | - |
| 1778000114 | 18.89° C | 66% | 1033.1 hPa | 0 mm | - | 464 W/m² | - |
| 1777999809 | 18.89° C | 62% | 1033.2 hPa | 0 mm | - | 451 W/m² | - |
| 1777999501 | 18.33° C | 63% | 1033.2 hPa | 0 mm | - | 440 W/m² | - |
| 1777999199 | 17.78° C | 68% | 1033.3 hPa | 0 mm | - | 430 W/m² | - |
| 1777998897 | 17.22° C | 71% | 1033.2 hPa | 0 mm | - | 418 W/m² | - |
| 1777998596 | 17.22° C | 72% | 1033.4 hPa | 0 mm | - | 405 W/m² | - |
| 1777998292 | 17.22° C | 69% | 1033.3 hPa | 0 mm | - | 392 W/m² | - |
| 1777997988 | 17.22° C | 68% | 1033.3 hPa | 0 mm | - | 381 W/m² | - |
| 1777997685 | 16.67° C | 73% | 1033.3 hPa | 0 mm | - | 368 W/m² | - |
| 1777997383 | 16.67° C | 71% | 1033.4 hPa | 0 mm | - | 354 W/m² | - |
| 1777997081 | 16.11° C | 74% | 1033.1 hPa | 0 mm | - | 340 W/m² | - |
| 1777996777 | 15.56° C | 75% | 1033.4 hPa | 0 mm | - | 329 W/m² | - |
| 1777996473 | 14.44° C | 76% | 1033.4 hPa | 0 mm | - | 315 W/m² | - |
| 1777996170 | 14.44° C | 79% | 1033.4 hPa | 0 mm | - | 301 W/m² | - |
| 1777995866 | 14.44° C | 80% | 1033.3 hPa | 0 mm | - | 287 W/m² | - |
| 1777995562 | 13.89° C | 83% | 1033.5 hPa | 0 mm | - | 275 W/m² | - |
| 1777995260 | 13.33° C | 83% | 1033.3 hPa | 0 mm | - | 262 W/m² | - |
| 1777994957 | 13.33° C | 85% | 1033.4 hPa | 0 mm | - | 248 W/m² | - |
* Rain latest hour (hover to see other rain measurements)
** Current wind speed in m/s (hover to see current wind gust speed)